Regional Weather Roundup
Issued by NWS

Home | Current Version | Previous Version | Graphics & Text | Print | Product List | Glossary On
Versions: 1 2 3 4 5 6 7 8 9 10 11 12 13 14 15 16 17 18 19 20 21 22 23 24 25 26 27 28 29 30 31 32 33 34 35 36 37 38 39 40 41 42 43 44 45 46 47 48 49 50
000
ASUS45 KBOI 181910
RWRID

IDAHO REGIONAL WEATHER ROUNDUP
NATIONAL WEATHER SERVICE BOISE ID
1200 PM MST WED JAN 18 2017

NOTE: "FAIR" INDICATES FEW OR NO CLOUDS BELOW 12000 FEET
WITH NO SIGNIFICANT WEATHER AND/OR OBSTRUCTIONS TO VISIBILITY

IDZ012-014-182000-
SOUTHWEST IDAHO


CITY           SKY/WX    TMP DP  RH WIND       PRES   REMARKS
BOISE          LGT SNOW  22  18  85 N3        30.00F VSB 3/4
CALDWELL       LGT SNOW  19  12  73 N6        30.01F VSB 1   WCI  11
MOUNTAIN HOME  CLOUDY    26  26  99 E26       29.97F BLWGSNOWWCI  10
$$

IDZ016-017-182000-
SOUTHCENTRAL IDAHO


CITY           SKY/WX    TMP DP  RH WIND       PRES   REMARKS
BURLEY         PTSUNNY   31  16  54 N5        30.00F WCI  26
JEROME         CLOUDY    24  17  74 NE26      29.99F WCI   8
TWIN FALLS     CLOUDY    24  15  68 E10       29.99F WCI  14
$$

IDZ019>023-182000-
SOUTHEAST IDAHO


CITY           SKY/WX    TMP DP  RH WIND       PRES   REMARKS
IDAHO FALLS    CLOUDY    11   6  81 N8        30.06F WCI  -1
POCATELLO      CLOUDY    17   9  70 NE7       30.06F WCI   8
REXBURG        CLOUDY    12   5  73 NE6       30.05F WCI   3
$$

IDZ006-010-011-018-031-032-182000-
CENTRAL IDAHO MOUNTAINS


CITY           SKY/WX    TMP DP  RH WIND       PRES   REMARKS
MCCALL         LGT SNOW  27  24  89 CALM      29.87F VSB 3/4
HAILEY         FLURRIES  25  18  74 NW7       30.02F WCI  17
STANLEY          N/A     17  14  88 CALM      29.91F
SALMON         CLOUDY     7   1  78 CALM      30.00F
CHALLIS        CLOUDY     8   4  83 CALM      29.97F
$$

IDZ002-004-006-007-026-182000-
NORTHERN IDAHO


CITY           SKY/WX    TMP DP  RH WIND       PRES   REMARKS
LEWISTON       CLOUDY    37  30  75 E8        29.71F WCI  31
LOWELL           N/A     33  31  92 N3        29.86R
COEUR D`ALENE  CLOUDY    37  36  96 CALM      29.66F
MULLAN PASS    SNOW      30  29  96 VRB7G21   29.65F VSB 1/4 WCI  23
$$



USA.gov is the U.S. government's official web portal to all federal, state and local government web resources and services.